Other Public Products
Issued by NWS Grand Forks, ND

Home | Current Version | Previous Version | Graphics & Text | Print | Product List | Glossary On
Versions: 1 2 3 4 5 6 7 8 9 10 11 12 13 14 15 16 17 18 19 20 21 22 23 24 25 26 27 28 29 30 31 32 33 34 35 36 37 38 39 40 41 42 43 44 45 46 47 48 49 50
000
FPUS83 KFGF 071631
OPUFGF
PRAIRIE TO PINES WEATHER ROUNDUP
NATIONAL WEATHER SERVICE EASTERN NORTH DAKOTA/GRAND FORKS ND
1000 AM CST WED DEC 07 2016

 **SATELLITE DATA USED TO AUGMENT SKY COVER AT AUTOMATED STATIONS**
 *****  WEATHER ACROSS EASTERN NORTH DAKOTA  *****

CITY           SKY/WX    TMP DP  RH WIND       PRES   REMARKS
GRAND FORKS    CLOUDY    16  10  77 NW26G37   29.94R BLWGSNOWWCI  -3
GRAND FORKS AF LGT SNOW  16   9  73 NW24G30   29.95S WCI  -3
GRAND CITY NWS   N/A     16 N/A N/A NW15        N/A  WCI   1
BUXTON           N/A     36  35  96 W22G33      N/A
DEVILS LAKE    SNOW       8   5  87 NW32G39   30.00R VSB 1/2 WCI -16
FARGO          LGT SNOW  14   7  73 W28G35    30.01S WCI  -6
WAHPETON ARPT  CLOUDY    14   9  79 NW31      30.06R WCI  -7
$$

 *****  WEATHER ACROSS CENTRAL AND WESTERN NORTH DAKOTA  *****

CITY           SKY/WX    TMP DP  RH WIND       PRES   REMARKS
JAMESTOWN      LGT SNOW   8   4  83 NW31G44   30.07R VSB 3/4 WCI -15
BISMARCK       CLOUDY     5  -1  76 NW23G37   30.27R WCI -17
MINOT          CLOUDY     5   0  79 W31G40    30.17R WCI -19
MINOT AFB      SNOW       3  -2  78 NW35G44   30.16R VSB 1/2 WCI -23
GARRISON         N/A      1  -4  79 NW36G46   30.20R WCI -26
WILLISTON      CLOUDY     0  -8  69 NW10      30.39R WCI -16
DICKINSON      CLOUDY    -1  -7  75 NW28G37   30.26R HAZE    WCI -26
HETTINGER      MOSUNNY    2  -4  76 NW29G35   30.29R WCI -23
$$

 *****  OTHER OBSERVATIONS NORTHEAST NORTH DAKOTA  *****

CITY           SKY/WX    TMP DP  RH WIND       PRES   REMARKS
WALHALLA       LGT SNOW  16  16 100 NW22G32   29.94R WCI  -2
LANGDON        SNOW      12  10  92 NW33G44   29.93R VSB 1/4 WCI -10
CAVALIER       LGT SNOW  18  14  86 NW26G40   29.92R WCI  -1
GRAFTON        PTSUNNY   16  14  93 NW23G30   29.94R FOG     WCI  -2
CANDO          LGT SNOW  10   9  92 NW21G29   30.05R WCI  -9
FORT TOTTEN      N/A      9   7  92 NW15      29.95S WCI  -8
ROLLA          HVY SNOW   9   9 100 NW33G47   30.01R VSB 1/4 WCI -15
RUGBY          LGT SNOW   7   3  85 NW32G40   30.09R VSB 3/4 WCI -17
 ***** THE ABOVE OBSERVATIONS ARE NON NWS ARE NOT QUALITY
        CONTROLLED AND MAY MIS-REPORT RAIN FOR SNOW...
$$

 *****  OTHER OBSERVATIONS SOUTHEAST NORTH DAKOTA *****

CITY           SKY/WX    TMP DP  RH WIND       PRES   REMARKS
COOPERSTOWN    SNOW       9   5  85 W31G40    30.01R VSB 1/2 WCI -14
VALLEY CITY    LGT SNOW   9   5  85 NW33G46   30.06R WCI -15
OAKES          NOT AVBL
GWINNER        CLOUDY    14   9  79 W21G38    30.10R WCI  -4
SHEYENNE NWR     N/A     12   2  65 NW21      29.95S WCI  -7
BUFFALO          N/A      9   4  80 N29         N/A  WCI -14
WYNDMERE         N/A     14   9  79 NW25        N/A  WCI  -5
 ***** THE ABOVE OBSERVATIONS ARE NON NWS ARE NOT QUALITY
       CONTROLLED AND MAY MIS-REPORT RAIN FOR SNOW...
$$

  *****  WEATHER ACROSS NORTHERN MINNESOTA  *****

CITY           SKY/WX    TMP DP  RH WIND       PRES   REMARKS
FLAG ISLAND    LGT SNOW  25  21  86 NW20      29.71R WCI  11
WARROAD        CLOUDY    21  19  93 W10       29.76R WCI  10
ROSEAU         CLOUDY    23  18  80 W12G18    29.78R HAZE    WCI  12
HALLOCK        LGT SNOW  19  18  93 NW28G37   29.87R VSB 3/4 WCI   1
THF RVR FALLS  LGT SNOW  16  12  86 W22       29.88R FOG     WCI  -2
HALSTAD          N/A     15  10  83 NW25        N/A  WCI  -5
FOSSTON        LGT SNOW  12  10  92 W18G24    29.89R WCI  -5
BAUDETTE       LGT SNOW  22  19  89 W15       29.72R FOG     WCI   9
WASKISH        CLOUDY    19  18  93 W22G30    29.76R WCI   3
CROOKSTON      CLOUDY    16  12  86 NW24      29.93R FOG     WCI  -3
$$
  *****  WEATHER ACROSS CENTRAL AND WEST MINNESOTA  *****

CITY           SKY/WX    TMP DP  RH WIND       PRES   REMARKS
BEMIDJI        LGT SNOW  15  10  83 W22       29.83R WCI  -3
PARK RAPIDS    LGT SNOW  13   6  74 W22       29.87R WCI  -6
WADENA         LGT SNOW  12   7  79 W16G28    29.93R WCI  -4
DETROIT LAKES  LGT SNOW  14  10  85 W17G26    29.95R WCI  -3
MOORHEAD       MIX PCPN  12   9  85 W25G33    30.02R VSB 1   WCI  -8
FERGUS FALLS   LGT SNOW  12   9  85 NW25      30.08R WCI  -8
ELBOW LAKE     LGT SNOW  12   9  85 NW22G28   30.04R WCI  -7
MORRIS MN      LGT SNOW  16   9  73 W33       30.06R WCI  -5
STAPLES        CLOUDY    12   7  79 W22       29.93R WCI  -7
WHEATON        LGT SNOW  16  10  79 W24G36    30.10R WCI  -3
$$
  *****  WEATHER ELSEWHERE ACROSS MINNESOTA  *****

CITY           SKY/WX    TMP DP  RH WIND       PRES   REMARKS
DULUTH         LGT SNOW  16  11  80 W22G29    29.74R BLWGSNOWWCI  -2
INTRNTL FALLS  LGT SNOW  22  19  89 W14G21    29.67R FOG     WCI   9
ELY            LGT SNOW  18  16  93 W16G23    29.65R WCI   3
CLOQUET        LGT SNOW  16   9  73 W18G25    29.79R WCI  -1
BRAINERD       LGT SNOW  14   7  73 W21G28    29.90R WCI  -4
HIBBING        LGT SNOW  16  12  84 W9G20     29.73R VSB 1   WCI   4
ALEXANDRIA     LGT SNOW  12   8  84 W22G31    30.00R FOG     WCI  -7
SAINT CLOUD    FLURRIES  16   8  71 W20G29    29.99R WCI  -1
MINNEAPOLIS    FLURRIES  18   9  68 W22G35    30.04S WCI   1
$$

  *****  WEATHER ACROSS SOUTH DAKOTA  *****

CITY           SKY/WX    TMP DP  RH WIND       PRES   REMARKS
SIOUX FALLS    PTSUNNY   13   6  74 NW24G30   30.21R WCI  -7
BROOKINGS      FLURRIES  10   4  76 W24G31    30.16R WCI -10
WATERTOWN      CLOUDY     9   3  77 W22G33    30.12R HAZE    WCI -11
HURON          CLOUDY    12   3  67 NW21      30.27R WCI  -7
SISSETON         N/A     15   6  67 NW25G36   30.07R WCI  -4
ABERDEEN       PTSUNNY   13   2  61 NW25G36   30.18R WCI  -7
MITCHELL       CLOUDY    13   3  64 W17G30    30.29R WCI  -4
PIERRE         CLOUDY     9   2  73 NW21G28   30.31R WCI -11
MOBRIDGE       PTSUNNY    9   0  67 NW31G41   30.23R WCI -14
RAPID CITY     CLOUDY     8  -2  63 NW29      30.31R WCI -15
$$

  *****  SOME WEATHER IN NEARBY STATES *****

CITY           SKY/WX    TMP DP  RH WIND       PRES   REMARKS
GLASGOW MT     MOCLDY    -1 -10  65 NW25      30.47R WCI -25
GREAT FALLS MT MOCLDY    -3 -10  72 W3        30.46R
CHEYENNE WY    MIX PCPN   0  -7  72 N12       30.09R WCI -17
SCOTTSBLUFF NE LGT SNOW   9   1  70 W14       30.29R WCI  -7
OMAHA NE       CLOUDY    19   7  59 NW14      30.33R WCI   6
DES MOINES IA  CLOUDY    20   9  62 NW16      30.24R WCI   6
DAVENPORT IA   SUNNY     23  16  74 W17       30.17R WCI   9
CHICAGO IL     PTSUNNY   25  17  72 W12G21    30.10R WCI  14
EAU CLAIRE WI  LGT SNOW  17  11  77 SW22G32   29.97R WCI   0
LA CROSSE WI   CLOUDY    20  11  68 W16       30.08R WCI   6
$$

  *****  SOME NATIONAL WEATHER *****

CITY           SKY/WX    TMP DP  RH WIND       PRES   REMARKS
LA GUARDIA NY  DRIZZLE   43  38  82 NE5       29.99F
RALEIGH NC     MOSUNNY   54  42  64 NE7       30.07S
ATLANTA GA     MOSUNNY   52  43  71 VRB3      30.07R
NEW ORLEANS LA CLOUDY    59  55  87 CALM      30.13R
OKLAHOMA CITY  CLOUDY    37  21  52 NE9       30.15R
ALBUQUERQUE NM CLOUDY    39  26  59 N7        30.02R
SALT LAKE CITY PTSUNNY   22  14  71 N7        30.22R WCI  13
LOS ANGELES CA PTSUNNY   54  42  64 CALM      30.08R
BOISE ID       CLOUDY    16  12  84 SE7       30.33R WCI   6
SEATTLE WA     PTCLDY    28  23  81 N8        30.41S WCI  20
$$

*** WEATHER ACROSS MANITOBA...SASKATCHEWAN AND ONTARIO ***
                ***ONTARIO***

CITY           SKY/WX    TMP DP  RH WIND       PRES   REMARKS
GERALDTON      CLOUDY    21  19  93 CALM      29.48R
THUNDER BAY    LGT SNOW  25  21  86 SW8       29.60R WCI  16
SIOUX LOOKOUT  LGT SNOW  23  19  86 N9G17     29.56R DRFTSNOWWCI  13
TORONTO        CLOUDY    36  25  64 W17G24    29.94R
BIG TROUT LK   LGT SNOW  23  21  93 N10G18    29.78S WCI  12
PICKLE LAKE    LGT SNOW  19  16  86 N12G21    29.55R DRFTSNOWWCI   7
DRYDEN         FLURRIES  23  21  93 N9        29.59R WCI  13
KENORA         LGT SNOW  21  19  93 N13       29.66R WCI   9
$$
                *** MANITOBA***

CITY           SKY/WX    TMP DP  RH WIND       PRES   REMARKS
BRANDON        FLURRIES  12   7  79 NW31      30.06R WCI -10
DAUPHIN        LGT SNOW  18  14  86 NW14G21   30.12R WCI   4
ISLAND LAKE    FLURRIES  18  16  93 N13G20    29.97R WCI   4
PILOT MOUND      N/A     10   9  92 NW29G36     N/A  WCI -11
THE PAS        MOCLDY    14   7  73 N16G25    30.27R WCI  -2
THOMPSON       LGT SNOW  12   7  79 N15G23    30.22R WCI  -4
WINNIPEG       LGT SNOW  23  19  86 N23       29.87R VSB 1   WCI   7
LYNN LAKE      FLURRIES   3   0  85 N12       30.34R WCI -13
CHURCHILL      SNOW      10   9  92 NW23G30   30.29R VSB 1/2 WCI -10
GILLAM         LGT SNOW  12   9  85 N21G32    30.15R DRFTSNOWWCI  -6
$$
                ***SASKATCHEWAN***

CITY           SKY/WX    TMP DP  RH WIND       PRES   REMARKS
ESTEVAN        LGT SNOW   0  -4  85 NW28G37   30.28R BLWGSNOWWCI -26
KINDERSLEY     MOCLDY    -6 -11  77 NW15G21   30.47R WCI -27
LLOYDMINSTER   FLURRIES  -6 -11  77 NW12G22   30.50R WCI -24
PRINCE ALBERT  FLURRIES   1  -4  78 NW12      30.41R WCI -15
REGINA         CLOUDY     0  -6  78 NW23      30.36R BLWGSNOWWCI -24
YORKTON        FLURRIES   9   3  78 NW18G26   30.22R WC1F1C2F2C3F3C4F4C5F5C6F6C7F7C8F8C9F9CaFaCbFbCcFcCdFdCe!



USA.gov is the U.S. government's official web portal to all federal, state and local government web resources and services.